User: anonymous   Login
Location: *
(50.3440°N, 18.6237°E)
Time: 13:06:31
(UTC+00:00)
Language:

Cosmos 2218 Rocket - Orbit

View from above orbital plane
View from above orbital plane
View from above satellite
View from above satellite

Ground track
Ground track

The orbit data is extracted from the following two-line orbital elements,

1 22208U 92073B   21061.49200149  .00000017  00000-0  21200-5 0  9992
2 22208  82.9150  95.8950 0033393 218.7940 250.2600 13.75160148421872
Epoch (UTC): 02 March 2021 11:48:28
Eccentricity: 0.0033393
inclination: 82.9150°
perigee height: 956 km
apogee height: 1005 km
right ascension of ascending node: 95.8950°
argument of perigee: 218.7940°
revolutions per day: 13.75160148
mean anomaly at epoch: 250.2600°
orbit number at epoch: 42187

The dashed part of the orbit path shows where the satellite is in the earth's shadow,  

DLR